Regional Weather Roundup
Issued by NWS

Home | Current Version | Previous Version | Graphics & Text | Print | Product List | Glossary On
Versions: 1 2 3 4 5 6 7 8 9 10 11 12 13 14 15 16 17 18 19 20 21 22 23 24 25 26 27 28 29 30 31 32 33 34 35 36 37 38 39 40 41 42 43 44 45 46 47 48 49 50
441
ASUS44 KLIX 240701
RWRLA
LOUISIANA WEATHER ROUNDUP
NATIONAL WEATHER SERVICE NEW ORLEANS LA
100 AM CST MON NOV 24 2014

NOTE: "FAIR" INDICATES FEW OR NO CLOUDS BELOW 12,000 FEET WITH NO
      SIGNIFICANT WEATHER AND/OR OBSTRUCTIONS TO VISIBILITY.
      SKY/WX - SKY CONDITION AND SIGNIFICANT WEATHER.
      TMP - AIR TEMPERATURE.    DP   - DEWPOINT TEMPERATURE.
      RH  - RELATIVE HUMIDITY.  PRES - PRESSURE.
      HX  - HEAT INDEX.         WCI  - WIND CHILL INDEX.

*  THESE STATIONS ARE NOT NWS OR FAA STATIONS AND ARE NOT UNDER
   NWS QUALITY CONTROL.

LAZ040-048-061>063-065-066-069-240800-
SOUTHEAST LOUISIANA

CITY           SKY/WX    TMP DP  RH WIND       PRES   REMARKS
N.O. AUDUBON   NOT AVBL
N.O. INTL ARPT PTCLDY    65  63  93 S9        29.75R FOG
N.O. LAKEFRONT CLEAR     68  65  90 SW14      29.75S
N.O. DOWNTOWN* FAIR      68  63  83 S6        29.76R
SLIDELL        MOCLDY    68  65  90 SW3       29.74S
BATON ROUGE    CLEAR     66  63  90 SW10      29.72S
BOOTHVILLE     PTCLDY    67  67 100 S7        29.77S FOG
BELLE CHASSE   MOCLDY    67  64  90 SW5       29.75R
BOGALUSA*        N/A     70  65  83 SW12      29.75R
NEW ROADS*     NOT AVBL
GONZALES*      NOT AVBL
HAMMOND*       NOT AVBL
HOUMA*         PTCLDY    66  65  99 CALM      29.75R FOG
PORT FOURCHON* MOSUNNY   70  68  94 SW6       29.79S FOG

$$

LAZ041-044-053-054-240800-
SOUTHWEST LOUISIANA

CITY           SKY/WX    TMP DP  RH WIND       PRES   REMARKS
LAKE CHARLES   CLEAR     63  61  93 VRB6      29.72R
LAFAYETTE      CLOUDY    68  66  93 SW10      29.72S
PATTERSON      CLEAR     66  64  94 SW8       29.76S
SALT POINT       N/A     69  64  84 VRB6      29.73S
NEW IBERIA     FOG       65  64  97 SW5       29.73S VSB 1/4
CHENAULT AIRPK CLEAR     63  62  95 W9        29.74R

$$

LAZ027-028-240800-
CENTRAL LOUISIANA

CITY           SKY/WX    TMP DP  RH WIND       PRES   REMARKS
FORT POLK      CLEAR     59  56  89 W8        29.71R
ALEXANDRIA INT CLEAR     60  57  89 SW7       29.68R
ALEXANDRIA     CLEAR     62  56  80 W13       29.68R

$$

LAZ001-002-240800-
NORTHWEST LOUISIANA

CITY           SKY/WX    TMP DP  RH WIND       PRES   REMARKS
SHREVEPORT     CLEAR     55  45  68 W13G21    29.71R
BARKSDALE AFB  CLEAR     55  44  65 NW15      29.71R
DTN SHREVEPORT CLEAR     54  43  66 NW12      29.71R

$$

LAZ014-016-240800-
NORTHEAST LOUISIANA

CITY           SKY/WX    TMP DP  RH WIND       PRES   REMARKS
MONROE         CLEAR     59  56  89 S7        29.65R
TALLULAH       CLEAR     63  57  81 VRB5      29.65R

$$




USA.gov is the U.S. government's official web portal to all federal, state and local government web resources and services.